Flag for U.S.A. Weather past 2 weeks in Austin, Texas, U.S.A.

Now
76 °F

Passing clouds.


Feels Like: 76 °F
Forecast: 74 / 95 °F
Wind: 5 mph from South

Location: Camp Mabry / Austin City

Current Time: Jul 30, 2014 at 7:50:08 AM

Latest Report: Jul 30, 2014 at 6:51 AM


Visibility: 10 mi

Pressure: 30.01 "Hg

Humidity: 85%

Dew point: 71 °F

Location of AustinLocation

Historic Weather in Austin — Graph

°F

Austin temperature yesterday

Maximum temperature yesterday: 96 °F (at 2:51 PM)
Minimum temperature yesterday: 76 °F (at 6:51 AM)
Average temperature yesterday: 85 °F

Past Weeks' High & Low Weather Summary

 TemperatureHumidityPressure
High98 °F (Jul 27, 5:51 PM)100% (Jul 18, 12:51 AM)30.10 "Hg (Jul 18, 12:51 AM)
Low70 °F (Jul 19, 6:51 AM)32% (Jul 28, 3:51 PM)29.76 "Hg (Jul 17, 5:51 PM)
Average83 °F69%29.96 "Hg
* Reported Jul 15 5:51 AM — Jul 30 5:51 AM, Austin, Weather by CustomWeather, © 2014

Note: Actual official high and low records may vary slightly from our data, if they occured in-between our weather recording intervals... More about our weather records

Advertising

Austin weather history for previous 24 hours

 ConditionsComfort  
Time TempWeatherWind HumidityBarometerVisibility
5:51 AM
Jul 30
76 °FClear.3 mph82%30.00 "Hg10 mi
4:51 AM78 °FClear.5 mph74%30.00 "Hg10 mi
3:51 AM78 °FClear.5 mph71%29.99 "Hg10 mi
2:51 AM78 °FClear.3 mph74%30.00 "Hg10 mi
1:51 AM79 °FClear.5 mph72%30.01 "Hg10 mi
12:51 AM81 °FClear.5 mph67%30.01 "Hg10 mi
11:51 PM
Jul 29
82 °FClear.5 mph65%30.02 "Hg10 mi
10:51 PM83 °FClear.3 mph65%30.02 "Hg10 mi
9:51 PM84 °FClear.6 mph63%30.01 "Hg10 mi
8:51 PM85 °FSunny.7 mph61%29.99 "Hg10 mi
7:51 PM87 °FSunny.6 mph50%29.98 "Hg10 mi
6:51 PM88 °FSunny.7 mph55%29.99 "Hg10 mi
5:51 PM90 °FSunny.9 mph54%29.99 "Hg10 mi
4:51 PM91 °FScattered clouds.12 mph52%30.00 "Hg10 mi
3:51 PM96 °FSunny.3 mph37%29.99 "Hg10 mi
2:51 PM96 °FPassing clouds.5 mph40%30.01 "Hg10 mi
1:51 PM93 °FPassing clouds.6 mph47%30.03 "Hg10 mi
12:51 PM94 °FSunny.No wind43%30.05 "Hg10 mi
11:51 AM91 °FSunny.3 mph52%30.07 "Hg10 mi
10:51 AM87 °FSunny.3 mph57%30.08 "Hg10 mi
9:51 AM83 °FSunny.3 mph70%30.08 "Hg10 mi
8:51 AM80 °FSunny.3 mph76%30.07 "Hg10 mi
7:51 AM78 °FSunny.3 mph82%30.06 "Hg10 mi
Weather by CustomWeather, © 2014

See weather overviewHow to use our weather pages